Weather History for Caldwell, NJ

Change the Weather History Date:

Saturday, June 22, 2013

  Actual Average Record
Temperature  
Mean Temperature 70 °F -  
Max Temperature 84 °F 80 °F 98 °F (1953)
Min Temperature 59 °F 58 °F 43 °F (1977)
Cooling Degree Days 6    
Growing Degree Days 20 (Base 50)    
Moisture  
Dew Point 58 °F    
Average Humidity 62    
Maximum Humidity 83    
Minimum Humidity 47    
Precipitation  
Precipitation 0.00 in - - ()
Sea Level Pressure  
Sea Level Pressure 30.23 in    
Wind  
Wind Speed 3 mph (SW)    
Max Wind Speed 9 mph    
Max Gust Speed -    
Visibility 10 miles    
Events      
Averages and records for this station are not official NWS values.
T = Trace of Precipitation, MM = Missing Value Source: NWS Daily Summary

Daily Weather History Graph

Daily Weather History Graph

Search for Another Location

Airport:

Trip Planner

Search our weather history database for the weather conditions in past years. The results will help you decide how hot, cold, wet, or windy it might be!

Date:

Astronomy

Jun. 22, 2013 Rise Set
Actual Time 5:25 AM EDT 8:32 PM EDT
Civil Twilight 4:52 AM EDT 9:06 PM EDT
Nautical Twilight 4:09 AM EDT 9:49 PM EDT
Astronomical Twilight 3:18 AM EDT 10:39 PM EDT
Moon 7:44 PM EDT (6/22) 4:36 AM EDT (6/22)
Length of Visible Light 16h 13m
Length of Day
15h 06m
Waxing Gibbous, 99% of the Moon is Illuminated
Jun 22
Waxing Gibbous
Jun 23
Full
Jun 30
Last Quarter
Jul 8
New
Jul 15
First Quarter

Hourly Weather History & Observations

Time (EDT) Temp. Heat Index Dew Point Humidity Pressure Visibility Wind Dir Wind Speed Gust Speed Precip Events Conditions
12:53 AM 66.9 °F - 54.0 °F 63% 30.28 in 10.0 mi SW 3.5 mph - N/A   Clear
1:53 AM 64.9 °F - 53.1 °F 65% 30.27 in 10.0 mi Calm Calm - N/A   Clear
2:53 AM 64.0 °F - 53.1 °F 67% 30.28 in 10.0 mi Calm Calm - N/A   Clear
3:53 AM 63.0 °F - 52.0 °F 67% 30.27 in 10.0 mi Calm Calm - N/A   Clear
4:53 AM 60.1 °F - 54.0 °F 80% 30.27 in 10.0 mi Calm Calm - N/A   Clear
5:53 AM 59.0 °F - 54.0 °F 83% 30.28 in 10.0 mi Calm Calm - N/A   Clear
6:53 AM 62.1 °F - 55.0 °F 78% 30.26 in 10.0 mi Calm Calm - N/A   Clear
7:53 AM 66.0 °F - 55.0 °F 68% 30.27 in 10.0 mi WSW 3.5 mph - N/A   Clear
8:53 AM 70.0 °F - 57.0 °F 63% 30.27 in 10.0 mi Variable 4.6 mph - N/A   Clear
9:53 AM 73.0 °F - 59.0 °F 61% 30.27 in 10.0 mi WSW 4.6 mph - N/A   Clear
10:53 AM 75.9 °F - 61.0 °F 60% 30.27 in 10.0 mi Variable 3.5 mph - N/A   Clear
11:53 AM 78.1 °F - 60.1 °F 54% 30.28 in 10.0 mi Variable 3.5 mph - N/A   Clear
12:53 PM 81.0 °F 81.3 °F 59.0 °F 47% 30.26 in 10.0 mi Variable 5.8 mph - N/A   Clear
1:53 PM 82.0 °F 82.4 °F 60.1 °F 47% 30.22 in 10.0 mi Variable 6.9 mph - N/A   Clear
2:53 PM 82.9 °F 83.3 °F 61.0 °F 47% 30.22 in 10.0 mi West 8.1 mph - N/A   Clear
3:53 PM 82.0 °F 83.0 °F 62.1 °F 51% 30.19 in 10.0 mi SW 8.1 mph - N/A   Partly Cloudy
4:53 PM 82.9 °F 84.0 °F 63.0 °F 51% 30.17 in 10.0 mi SW 6.9 mph - N/A   Clear
5:53 PM 82.9 °F 84.0 °F 63.0 °F 51% 30.16 in 10.0 mi SSW 9.2 mph - N/A   Clear
6:53 PM 80.1 °F 81.2 °F 62.1 °F 54% 30.14 in 10.0 mi South 4.6 mph - N/A   Clear
7:53 PM 78.1 °F - 62.1 °F 58% 30.14 in 10.0 mi South 8.1 mph - N/A   Clear
8:53 PM 75.0 °F - 61.0 °F 62% 30.15 in 10.0 mi SSE 4.6 mph - N/A   Clear
9:53 PM 71.1 °F - 61.0 °F 70% 30.18 in 10.0 mi Calm Calm - N/A   Clear
10:53 PM 70.0 °F - 61.0 °F 73% 30.19 in 10.0 mi Calm Calm - N/A   Clear
11:53 PM 71.1 °F - 60.1 °F 68% 30.20 in 10.0 mi Variable 3.5 mph - N/A   Clear